Home   Weather   Wals-Siezenheim   Past weeks

Flag for Austria Past Weather in Wals-Siezenheim, Salzburg, Austria — Yesterday and Last 2 Weeks

41 °F


Feels Like: 36 °F
Forecast: 40 / 53 °F
Wind: 7 mph from South

Location: Salzburg-Flughafen

Current Time: Oct 20, 2016 at 9:40:46 PM

Latest Report: Oct 20, 2016 at 8:50 PM

Visibility: 10 mi

Pressure: 29.95 "Hg

Humidity: 87%

Dew Point: 37 °F

Location of Wals-SiezenheimLocation

Past Weather in Wals-Siezenheim — Graph


Wals-Siezenheim Temperature Yesterday

Maximum temperature yesterday: 50 °F (at 12:20 AM)
Minimum temperature yesterday: 46 °F (at 9:20 PM)
Average temperature yesterday: 49 °F

High & Low Weather Summary for the Past Weeks

High68 °F (Oct 15, 12:50 PM)100% (Oct 7, 7:50 PM)30.27 "Hg (Oct 7, 7:50 PM)
Low28 °F (Oct 13, 7:20 AM)49% (Oct 15, 1:50 PM)29.71 "Hg (Oct 15, 3:50 AM)
Average47 °F87%30.07 "Hg
* Reported Oct 5 8:20 PM — Oct 20 8:20 PM, Wals-Siezenheim, Weather by CustomWeather, © 2016

Note: Actual official high and low records may vary slightly from our data, if they occured in-between our weather recording intervals... More about our weather records


Wals-Siezenheim Weather History for the Previous 24 Hours

Scroll right to see more
Time TempWeatherWind HumidityBarometerVisibility
8:20 PM
Thu, Oct 20
43 °FClear.7 mph81%29.95 "Hg10 mi
7:50 PM43 °FPassing clouds.9 mph81%29.95 "HgN/A
7:20 PM45 °FPassing clouds.9 mph76%29.95 "HgN/A
6:50 PM45 °FPassing clouds.8 mph76%29.95 "HgN/A
6:20 PM45 °FPassing clouds.9 mph76%29.95 "HgN/A
5:50 PM46 °FPassing clouds.9 mph71%29.95 "HgN/A
5:20 PM50 °FPassing clouds.9 mph62%29.95 "HgN/A
4:50 PM50 °FPassing clouds.9 mph62%29.95 "HgN/A
4:20 PM52 °FPassing clouds.8 mph62%29.95 "HgN/A
3:50 PM50 °FPassing clouds.8 mph67%29.95 "HgN/A
2:50 PM48 °FPassing clouds.12 mph71%29.95 "HgN/A
2:20 PM48 °FScattered clouds.12 mph76%29.98 "HgN/A
1:50 PM46 °FScattered clouds.12 mph76%29.98 "HgN/A
1:20 PM48 °FPassing clouds.8 mph76%29.98 "HgN/A
12:50 PM48 °FScattered clouds.10 mph76%29.98 "HgN/A
12:20 PM46 °FPartly sunny.7 mph82%30.01 "HgN/A
11:50 AM46 °FPartly sunny.7 mph82%30.01 "HgN/A
11:20 AM45 °FPartly sunny.9 mph81%30.01 "HgN/A
10:50 AM43 °FBroken clouds.8 mph87%30.01 "HgN/A
10:20 AM43 °FPartly sunny.8 mph93%30.01 "HgN/A
9:50 AM43 °FBroken clouds.8 mph87%30.04 "HgN/A
9:20 AM43 °FPartly sunny.6 mph93%30.01 "HgN/A
8:50 AM43 °FPartly sunny.7 mph93%30.04 "HgN/A
8:20 AM43 °FPartly sunny.9 mph93%30.01 "HgN/A
7:50 AM43 °FBroken clouds.7 mph93%30.01 "HgN/A
7:20 AM43 °FPartly cloudy.6 mph93%30.01 "HgN/A
6:50 AM43 °FLight rain. Passing clouds.7 mph93%30.01 "HgN/A
6:20 AM43 °FLight rain. Passing clouds.6 mph100%30.01 "HgN/A
5:50 AM43 °FRain. Passing clouds.6 mph100%30.01 "HgN/A
5:20 AM43 °FLight rain. Passing clouds.6 mph100%30.01 "HgN/A
4:50 AM45 °FLight rain. Partly cloudy.8 mph93%30.01 "HgN/A
4:20 AM45 °FLight rain. Partly cloudy.6 mph93%30.01 "HgN/A
3:50 AM45 °FLight rain. Passing clouds.6 mph93%30.04 "HgN/A
3:20 AM45 °FLight rain. Passing clouds.7 mph93%30.04 "HgN/A
2:50 AM45 °FLight rain. Partly cloudy.7 mph93%30.04 "HgN/A
2:20 AM45 °FLight rain. Passing clouds.7 mph93%30.04 "HgN/A
1:50 AM45 °FLight rain. Passing clouds.8 mph93%30.04 "HgN/A
1:20 AM45 °FLight rain. Partly cloudy.8 mph93%30.04 "HgN/A
12:50 AM46 °FLight rain. Passing clouds.7 mph93%30.04 "HgN/A
12:20 AM46 °FRain. Partly cloudy.7 mph93%30.04 "HgN/A
11:50 PM
Wed, Oct 19
46 °FLight rain. Passing clouds.6 mph93%30.04 "HgN/A
11:20 PM46 °FLight rain. Partly cloudy.8 mph93%30.04 "HgN/A
10:50 PM46 °FRain. Partly cloudy.9 mph93%30.04 "HgN/A
10:20 PM46 °FLight rain. Partly cloudy.6 mph93%30.04 "HgN/A
9:50 PM46 °FRain. Partly cloudy.7 mph93%30.04 "HgN/A
9:20 PM46 °FLight rain. Partly cloudy.6 mph100%30.04 "HgN/A
Weather by CustomWeather, © 2016

See weather overviewHow to use our weather pages